Location: Austin
(30.3000°N, 97.7500°W)
Time: 11:19:59
(UTC-05:00)

Meteor 1-31 Rocket - Pass Details

Date: 05 September 2024
Orbit: 488 x 511 km, 97.7° (Epoch: 10 September)

Event Time Altitude Azimuth Distance (km) Brightness Sun altitude
Rises 20:06:52 0° 180° (S) 2,594 6.2 -4.8°
Reaches altitude 10° 20:09:01 10° 187° (S) 1,709 5.3 -5.3°
Maximum altitude 20:12:33 44° 260° (W) 706 4.0 -6.0°
Drops below altitude 10° 20:16:04 10° 334° (NNW) 1,707 5.9 -6.8°
Sets 20:18:13 0° 341° (NNW) 2,589 6.7 -7.2°
